Location: Bois de la Silve
(44.4667°N, 6.7833°E)
Time: 20:59:02
(UTC+00:00)

Abrixas rocket - Pass Details

Date: 14 July 2020
Orbit: 338 x 346 km, 48.4° (Epoch: 13 August)

Event Time Altitude Azimuth Distance (km) Brightness Sun altitude
Rises 03:07:05 0° 290° (WNW) 2,121 5.5 -8.6°
Reaches altitude 10° 03:09:08 10° 284° (WNW) 1,280 4.4 -8.3°
Maximum altitude 03:11:53 44° 210° (SSW) 476 2.1 -8.0°
Drops below altitude 10° 03:14:37 10° 136° (SE) 1,274 4.8 -7.6°
Sets 03:16:39 0° 129° (SE) 2,110 6.0 -7.3°
